#timestamp,LO_Frequency,Hit 
1504026015.0,286047003.8,N
1504026015.9,286047003.8,N
1504026035.8,286047004.0,N
1504026055.6,286046998.2,N
1504026075.4,286047000.7,N
1504026095.2,286047000.4,N
1504026115.1,286046999.7,N
1504026116.0,286046999.7,N
1504026135.8,286047001.1,N
1504026155.6,286047002.4,N
1504026175.5,286046998.9,N
1504026195.3,286047002.1,N
1504026215.1,286047005.6,P
1504026235.9,286047003.6,N
1504026255.7,286047002.7,N
1504026275.5,286047003.9,N
1504026295.4,286047002.4,N
1504026315.2,286047003.2,N
1504026335.0,286047003.4,N
1504026335.9,286047003.4,N
1504026355.8,286046999.9,N
1504026375.6,286047000.0,N
1504026395.4,286047003.7,N
1504026415.3,286047003.8,N
1504026435.1,286047005.2,P
1504026455.8,286047002.2,N
1504026475.7,286047004.4,P
1504026495.5,286047001.8,N
1504026515.3,286047001.1,N
1504026535.2,286046998.7,N
1504026555.9,286047000.2,N
1504026575.3,286047000.0,N
1504026595.1,286047002.2,N
1504026615.9,286047001.4,N
1504026635.7,286047001.0,N
1504026655.5,286046999.5,N
1504026675.3,286046996.7,N
1504026695.2,286046993.7,N
1504026715.0,286046995.8,N
1504026715.9,286046995.8,N
1504026735.7,286046994.0,N
1504026755.6,286046996.7,N
1504026775.4,286046999.1,N
1504026795.2,286046999.6,N
1504026815.1,286046996.6,N
1504026816.0,286046996.6,N
1504026835.8,286047000.8,N
1504026855.6,286047001.0,N
1504026875.5,286047000.2,N
1504026895.3,286046998.2,N
1504026915.1,286047000.3,N
1504026935.9,286046999.7,N
1504026955.7,286047002.8,N
1504026975.5,286047002.2,N
1504026995.3,286046999.9,N
1504027015.2,286046998.7,N
1504027035.0,286046997.1,N
1504027035.9,286046997.1,N
1504027055.7,286046998.0,N
1504027075.6,286046997.7,N
1504027095.4,286046999.6,N
1504027115.2,286047002.6,N
1504027135.1,286047005.1,N
1504027136.0,286047005.1,N
1504027155.8,286047004.6,N
1504027175.6,286047004.9,N
1504027195.5,286047004.5,N
1504027215.3,286047005.0,N
1504027235.1,286047004.9,N
1504027255.9,286047003.7,N
1504027275.7,286047003.1,N
1504027295.5,286047002.7,N
1504027315.4,286047000.3,N
1504027335.2,286047004.1,N
1504027355.0,286047001.9,N
1504027355.9,286047001.9,N
1504027375.7,286047003.0,N
1504027395.6,286047004.5,N
1504027415.4,286047005.3,N
1504027435.2,286047005.8,N
1504027455.1,286047007.5,N
1504027456.0,286047007.5,N
1504027475.8,286047005.2,N
1504027495.6,286047004.6,N
1504027515.5,286047005.5,N
1504027535.3,286047007.1,N
1504027555.1,286047008.2,N
1504027575.9,286047008.0,N
1504027595.7,286047006.2,N
1504027615.5,286047010.7,P
1504027635.4,286047004.0,N
1504027655.2,286047003.8,N
1504027675.3,286047003.6,N
1504027695.1,286046999.7,N
1504027715.8,286047001.9,N
1504027735.7,286047002.6,N
1504027755.5,286046999.7,N
1504027775.3,286047002.5,N
1504027795.2,286046999.7,N
1504027815.0,286047000.1,N
1504027815.9,286047000.1,N
1504027835.7,286047003.2,N
1504027855.6,286047005.5,N
1504027875.4,286047001.5,N
1504027895.2,286047001.7,N
1504027915.1,286047000.1,N
1504027916.0,286047000.1,N
1504027935.8,286047004.4,N
1504027955.6,286047003.3,N
1504027975.5,286047004.3,N
1504027995.3,286047004.2,N
1504028015.1,286047006.0,N
1504028035.9,286047001.5,N
1504028055.7,286047002.7,N
1504028075.5,286047002.2,N
1504028095.3,286046999.9,N
1504028115.2,286047001.7,N
1504028135.0,286047004.2,N
1504028135.9,286047004.2,N
1504028155.7,286047004.7,N
1504028175.6,286047005.2,N
1504028195.4,286047006.9,P
1504028215.2,286047000.3,N
1504028235.1,286047001.3,N
1504028236.0,286047001.3,N
1504028255.8,286047003.8,N
1504028275.6,286047003.6,N
1504028295.5,286047002.1,N
1504028315.3,286047003.7,N
1504028335.1,286047005.7,P
1504028355.9,286046998.7,N
1504028375.7,286046996.5,N
1504028395.5,286046997.3,N
1504028415.4,286046997.6,N
1504028435.2,286047001.2,N
1504028455.0,286046998.7,N
1504028455.9,286046998.7,N
1504028475.8,286046999.7,N
1504028495.8,286046997.0,N
1504028515.6,286047001.2,N
1504028535.4,286046998.1,N
1504028555.3,286047000.7,N
1504028575.1,286047003.6,N
1504028576.0,286047003.6,N
1504028595.8,286047004.4,N
1504028615.7,286047000.6,N
1504028635.5,286046996.5,N
1504028655.3,286047001.0,N
1504028675.2,286046998.8,N
1504028695.9,286046998.3,N
1504028715.7,286047003.9,N
1504028735.5,286047003.6,N
1504028755.4,286047006.0,N
1504028775.2,286047005.8,N
1504028795.0,286047005.6,N
1504028795.9,286047005.6,N
1504028815.8,286047005.0,N
1504028835.6,286047004.5,N
1504028855.4,286047006.9,N
1504028875.3,286047007.1,N
1504028895.1,286047004.9,N
1504028896.0,286047004.9,N
1504028915.8,286047007.2,N
1504028935.7,286047004.8,N
1504028955.5,286047005.3,N
1504028975.3,286047007.5,N
1504028995.2,286047006.2,N
1504029015.9,286047006.9,N
1504029035.7,286047006.2,N
1504029055.6,286047009.0,P
1504029075.4,286047005.5,N
1504029095.2,286047001.3,N
1504029115.1,286047001.4,N
1504029116.0,286047001.4,N
1504029135.8,286047003.2,N
1504029155.6,286047003.0,N
1504029175.5,286047003.4,N
1504029195.3,286047005.7,N
1504029215.1,286047004.8,N
1504029235.9,286047007.0,P
1504029255.7,286046998.1,N
1504029275.5,286047000.4,N
1504029295.3,286047000.9,N
1504029315.2,286047001.0,N
1504029335.0,286047000.9,N
1504029335.9,286047000.9,N
1504029355.7,286047001.0,N
1504029375.6,286046998.1,N
1504029395.4,286047000.5,N
1504029415.2,286046998.7,N
1504029435.1,286046998.0,N
1504029436.0,286046998.0,N
1504029455.8,286046996.8,N
1504029475.6,286046998.7,N
1504029495.5,286046999.6,N
1504029515.3,286046999.0,N
1504029535.1,286047000.5,N
1504029555.9,286046999.6,N
1504029575.7,286046997.8,N
1504029595.5,286047001.1,N
